Weather Service Report


697 
ASCA42 TJSJ 280010
RWRPR 
PUERTO RICO/U.S. VIRGIN ISLANDS HOURLY WEATHER ROUNDUP
NATIONAL WEATHER SERVICE SAN JUAN PR
800 PM AST TUE JUN 27 2017

PRZ001>002-007>008-010-280100-
PUERTO RICO
  
CITY           SKY/WX    TMP DP  RH WIND       PRES   REMARKS
SAN JUAN LMM   PTCLDY    82  75  78 E12       30.01R                  
AGUADILLA      MOCLDY    81  73  78 E10       30.02S                  
CEIBA          CLOUDY    82  77  83 NE9       30.03R HX  91           
$$

VIZ001>002-280100-
U.S. VIRGIN ISLANDS
  
CITY           SKY/WX    TMP DP  RH WIND       PRES   REMARKS
CHARLOTTE AMA  PTCLDY    84  75  74 NE12      30.00R HX  92           
CHRISTIANSTED  PTCLDY    82  75  78 NE8       30.00R                  
$$

HOURLY WEATHER ROUNDUP FOR THE NEWS MEDIA
  
CITY           SKY/WX    TMP DP  RH WIND       PRES   REMARKS
ORLANDO        CLOUDY    75  74  96 S6        30.01S                  
NEW YORK       MOCLDY    69  64  84 SW12      29.96R                  
NEWARK         MOCLDY    73  47  39 NW14G24   29.95R                  
CHICAGO        MOSUNNY   75  43  31 W5        30.01F                  
HARTFORD       CLEAR     67  59  75 S10       29.91F                  
BOSTON         CLOUDY    66  54  65 SW14      29.90S                  
DALLAS         PTSUNNY   78  73  84 SE3       29.92F                  
PHILADELPHIA   PTCLDY    77  48  35 W12       29.97R                  
LOS ANGELES    SUNNY     72  56  57 W12       29.85F                  
WASHINGTON DC  PTCLDY    75  44  33 NW15      30.02R                  

Return to Home page


Western Regional Climate Center, wrcc@dri.edu